Location: Fort Wayne
(41.1310°N, 85.1290°W)
Time: 16:34:10
(UTC-04:00)

Cosmos 2056 Rocket - Visible Passes

Search period start: 20 July 2017 00:00
Search period end: 30 July 2017 00:00
Orbit: 743 x 800 km, 74.0° (Epoch: 19 July)

Date Brightness Start Highest point End Pass type
(mag) Time Alt. Az. Time Alt. Az. Time Alt. Az.
20 Jul 5.7 01:03:36 13° ENE 01:03:36 13° ENE 01:05:00 10° ENE visible
20 Jul 3.6 02:43:56 63° WNW 02:43:56 63° WNW 02:48:56 10° NNE visible
21 Jul 3.7 02:08:33 65° NE 02:08:33 65° NE 02:13:00 10° NNE visible
21 Jul 5.6 03:48:52 12° WNW 03:50:38 14° NW 03:53:21 10° NNW visible
22 Jul 4.4 01:33:08 38° ENE 01:33:08 38° ENE 01:36:51 10° NNE visible
22 Jul 5.1 03:13:28 21° WNW 03:14:21 22° WNW 03:18:20 10° N visible
23 Jul 5.1 00:57:42 23° ENE 00:57:42 23° ENE 01:00:25 10° NE visible
23 Jul 4.5 02:38:02 35° WNW 02:38:10 36° WNW 02:42:52 10° N visible
24 Jul 5.6 00:22:15 13° ENE 00:22:15 13° ENE 00:23:26 10° ENE visible
24 Jul 3.9 02:02:35 56° NW 02:02:35 56° NW 02:07:09 10° NNE visible
25 Jul 3.8 01:27:05 59° NNE 01:27:05 59° NNE 01:31:15 10° NNE visible
25 Jul 5.7 03:07:25 12° WNW 03:08:55 13° NW 03:11:25 10° NNW visible
26 Jul 4.4 00:51:35 38° ENE 00:51:35 38° ENE 00:55:08 10° NNE visible
26 Jul 5.2 02:31:54 21° WNW 02:32:37 21° WNW 02:36:30 10° N visible
27 Jul 5.0 00:16:02 23° ENE 00:16:02 23° ENE 00:18:44 10° NE visible
27 Jul 4.6 01:56:22 34° WNW 01:56:25 34° WNW 02:01:04 10° N visible
27 Jul 5.5 23:40:28 14° ENE 23:40:28 14° ENE 23:41:52 10° ENE visible
28 Jul 4.0 01:20:47 53° NW 01:20:47 53° NW 01:25:23 10° N visible
29 Jul 3.7 00:45:11 63° NNE 00:45:11 63° NNE 00:49:29 10° NNE visible
29 Jul 5.9 02:25:29 11° WNW 02:27:13 13° NW 02:29:27 10° NNW visible
